Meteo Giornale » Osservazioni meteo Tanzania » Zanzibar-Kisauni
ore: 00:00 - Osservazioni Meteo Zanzibar-Kisauni
Lat. 6° 13' S Lon. 39° 13' E Alt. 15 metri s.l.m.
24 °C
Poco Nuvoloso
Temp. 24 Ore
24 °C
29 °C
Nord
0 Km/h
Dew point 21 °C
Umidità 83 %
Visibilità 10 Km
Il sole sorge alle ore 06:22
Il sole tramonta alle ore 18:22
| Data e Ora | Cielo e Fenomeni | T °C | DP °C | Um. % | Pres. hPa | Vis. km | Vento km/h | |
|---|---|---|---|---|---|---|---|---|
| Oggi h: 00:00 | Poco Nuvoloso | 24 | 21 | 83 | 1019 | 10 | N 0 | |
| Ieri h: 23:00 | Poco Nuvoloso | 24 | 22 | 88 | 1019 | 10 | N 3.7 | |
| Ieri h: 22:00 | Poco Nuvoloso | 24 | 21 | 83 | 1019 | 10 | N 3.7 | |
| Ieri h: 20:00 | Poco Nuvoloso | 25 | 21 | 78 | 1018 | 10 | E 7.4 | |
| Ieri h: 19:00 | Poco Nuvoloso | 26 | 20 | 69 | 1018 | 10 | E/SE 11.1 | |
| Ieri h: 18:00 | Poco Nuvoloso | 26 | 21 | 73 | 1018 | 10 | SE 16.7 | |
| Ieri h: 17:00 | Poco Nuvoloso | 28 | 21 | 65 | 1017 | 10 | SE 22.2 | |
| Ieri h: 16:00 | Poco Nuvoloso | 28 | 20 | 61 | 1018 | 10 | SE 22.2 | |
| Ieri h: 15:00 | Poco Nuvoloso | 29 | 20 | 58 | 1018 | 10 | SE 20.3 | |
| Ieri h: 14:00 | Poco Nuvoloso | 29 | 20 | 58 | 1021 | 10 | SE 20.3 | |
| Ieri h: 13:00 | Poco Nuvoloso | 29 | 21 | 62 | 1020 | 10 | SE 22.2 | |
| Ieri h: 12:00 | Nuvoloso | 29 | 20 | 58 | 1021 | 10 | S/SE 22.2 | |
| Ieri h: 11:00 | Molto Nuvoloso | 26 | 22 | 78 | 1021 | 10 | S 16.7 | |
| Ieri h: 10:00 | Molto Nuvoloso | 26 | 22 | 78 | 1021 | 10 | S 16.7 | |
| Ieri h: 09:00 | Molto Nuvoloso | 26 | 22 | 78 | 1021 | 10 | S 16.7 | |
| Ieri h: 08:00 | Molto Nuvoloso | 26 | 23 | 83 | 1020 | 10 | S 13 | |
| Ieri h: 07:00 | Molto Nuvoloso | 25 | 21 | 78 | 1019 | 10 | SE 7.4 | |
| Ieri h: 06:00 | Nuvoloso | 24 | 21 | 83 | 1018 | 10 | N 5.5 | |
| Ieri h: 04:00 | Molto Nuvoloso | 24 | 22 | 88 | 1017 | 10 | E/SE 7.4 | |
| Ieri h: 03:00 | Poco Nuvoloso | 24 | 21 | 83 | 1018 | 10 | N 0 | |
| Ieri h: 02:00 | Poco Nuvoloso | 24 | 22 | 88 | 1018 | 10 | N 5.5 | |



